Weather in Columbia

United States     34°00′02″N   81°02′06″W
temp.,
°C
wind,
m/s
gust,
m/s
humid.,
%
clouds,
%
prec.,
mm/h
press.,
hPa
HPBL,
m
17 may, mon
mon1723:00+20ne1359100 0.0 1023103
02:00+17sw1265100 0.0 102342
05:00+16sw256322 0.0 1022125
08:00+18w235889 0.0 1024220
11:00+24sw2242100 0.0 1024916
14:00+27sw3234100 0.0 10232071
17:00+27ssw3236100 0.0 10212188
20:00+24s245074 0.0 1022223
18 may, tue
tue1823:00+20s395561 0.0 1024397
02:00+19sse266496 0.0 1024262
05:00+18sse137389 0.0 1024155
08:00+19e2272100 0.0 1026269
11:00+24ese2352100 0.0 10261260
14:00+27se3340100 0.0 10252013
17:00+27se3341100 0.0 10231992
20:00+23sse2559100 0.0 1024272
19 may, wed
wed1923:00+20se276791 0.0 1025267
02:00+19sse2574100 0.0 1025251
05:00+17ese2483100 0.0 1025138
08:00+19e247472 0.0 1027255
11:00+25e344760 0.0 10271299
14:00+28e553726 0.0 10262311
17:00+29e45316 0.0 10242422
20:00+24se3750100 0.0 1024686
20 may, thu
thu2023:00+20se38704 0.0 1027387
02:00+18se25865 0.0 1027160
05:00+17e23915 0.0 102799
08:00+19ene23815 0.0 1029257
11:00+25e35475 0.0 10291557
14:00+29e45305 0.0 10272106
17:00+29e3430100 0.0 10262332
20:00+24ese37463 0.0 1026453
21 may, fri
fri2123:00+20se27640 0.0 1028253
02:00+17sse13763 0.0 1028104
05:00+16ese11857 0.0 102854
08:00+19nne227414 0.0 1030205
11:00+26ene224759 0.0 10301203
14:00+30ese223265 0.0 10282021
17:00+30ese223049 0.0 10262395
20:00+26se124652 0.0 102636